Weather History for Fulton, NY

Change the Weather History Date:

Sunday, April 7, 2013

  Actual Average (KSYR) Record (KSYR)
Temperature  
Mean Temperature 52 °F 43 °F  
Max Temperature 68 °F 53 °F 85 °F (1991)
Min Temperature 39 °F 34 °F 9 °F (1972)
Degree Days  
Heating Degree Days 12 22  
Month to date heating degree days 161  
Since 1 July heating degree days 5949  
Cooling Degree Days 0 0  
Month to date cooling degree days 0  
Year to date cooling degree days 0  
Growing Degree Days 2 (Base 50)    
Moisture  
Dew Point 29 °F    
Average Humidity 46    
Maximum Humidity 71    
Minimum Humidity 29    
Precipitation  
Precipitation 0.00 in 0.11 in 1.04 in (2014)
Month to date precipitation 0.78  
Year to date precipitation 8.30  
Snow  
Snow 0.00 in 0.20 in 3.00 in (1996)
Month to date snowfall 1.5  
Since 1 July snowfall 121.4  
Snow Depth -    
Sea Level Pressure  
Sea Level Pressure 29.91 in    
Wind  
Wind Speed 11 mph (South)    
Max Wind Speed 22 mph    
Max Gust Speed 37 mph    
Visibility 10 miles    
Events Rain    
T = Trace of Precipitation, MM = Missing Value Source: NWS Daily Summary

Daily Weather History Graph

Daily Weather History Graph

Search for Another Location

Airport:

Trip Planner

Search our weather history database for the weather conditions in past years. The results will help you decide how hot, cold, wet, or windy it might be!

Date:

Astronomy

Apr. 07, 2013 Rise Set
Actual Time 6:36 AM EDT 7:39 PM EDT
Civil Twilight 6:07 AM EDT 8:08 PM EDT
Nautical Twilight 5:32 AM EDT 8:43 PM EDT
Astronomical Twilight 4:56 AM EDT 9:20 PM EDT
Moon 4:57 AM EDT (4/7) 5:05 PM EDT (4/7)
Length of Visible Light 14h 01m
Length of Day
13h 03m
Waning Crescent, 8% of the Moon is Illuminated
Apr 7
Waning Crescent
Apr 10
New
Apr 18
First Quarter
Apr 25
Full
May 2
Last Quarter

Hourly Weather History & Observations

Time (EDT) Temp. Windchill Dew Point Humidity Pressure Visibility Wind Dir Wind Speed Gust Speed Precip Events Conditions
12:54 AM 41.0 °F 36.4 °F 18.0 °F 40% 30.10 in 10.0 mi ESE 6.9 mph - 0.00 in Rain Light Rain
1:54 AM 39.9 °F 34.5 °F 19.9 °F 45% 30.06 in 10.0 mi ESE 8.1 mph - 0.00 in   Overcast
2:54 AM 41.0 °F 34.7 °F 19.0 °F 41% 30.03 in 10.0 mi SE 10.4 mph - 0.00 in Rain Light Rain
3:54 AM 41.0 °F 37.1 °F 23.0 °F 49% 30.03 in 10.0 mi SE 5.8 mph - 0.00 in Rain Light Rain
4:54 AM 44.1 °F 39.5 °F 21.9 °F 42% 29.97 in 10.0 mi SE 8.1 mph - 0.00 in   Mostly Cloudy
5:54 AM 45.0 °F 41.2 °F 24.1 °F 44% 29.95 in 10.0 mi SSE 6.9 mph - N/A   Overcast
6:54 AM 45.0 °F 41.2 °F 23.0 °F 42% 29.94 in 10.0 mi SE 6.9 mph - N/A   Clear
7:54 AM 46.9 °F - 24.1 °F 41% 29.92 in 10.0 mi SSE 6.9 mph - N/A   Clear
8:54 AM 50.0 °F - 25.0 °F 38% 29.89 in 10.0 mi SSE 9.2 mph 17.3 mph N/A   Scattered Clouds
9:54 AM 50.0 °F - 26.1 °F 39% 29.86 in 10.0 mi South 11.5 mph 24.2 mph N/A   Mostly Cloudy
10:54 AM 52.0 °F - 27.0 °F 38% 29.85 in 10.0 mi South 18.4 mph 26.5 mph N/A   Partly Cloudy
11:54 AM 54.0 °F - 28.9 °F 38% 29.83 in 10.0 mi South 19.6 mph 32.2 mph N/A   Overcast
12:54 PM 55.9 °F - 28.9 °F 36% 29.79 in 10.0 mi South 17.3 mph 24.2 mph N/A   Overcast
1:54 PM 60.1 °F - 30.9 °F 33% 29.76 in 10.0 mi South 18.4 mph 27.6 mph N/A   Clear
2:54 PM 66.0 °F - 33.1 °F 29% 29.74 in 10.0 mi South 21.9 mph 35.7 mph N/A   Clear
3:54 PM 66.9 °F - 34.0 °F 30% 29.74 in 10.0 mi South 18.4 mph 27.6 mph N/A   Mostly Cloudy
4:54 PM 64.9 °F - 35.1 °F 33% 29.76 in 10.0 mi WSW 11.5 mph - 0.00 in   Mostly Cloudy
5:54 PM 57.0 °F - 39.9 °F 53% 29.83 in 10.0 mi WNW 20.7 mph 36.8 mph N/A   Mostly Cloudy
6:54 PM 53.1 °F - 37.0 °F 55% 29.86 in 10.0 mi WNW 20.7 mph 31.1 mph N/A   Partly Cloudy
7:54 PM 48.0 °F - 35.1 °F 61% 29.90 in 10.0 mi WNW 12.7 mph 24.2 mph N/A   Partly Cloudy
8:54 PM 46.0 °F 40.6 °F 35.1 °F 66% 29.95 in 10.0 mi WNW 11.5 mph - N/A   Partly Cloudy
9:54 PM 43.0 °F 36.4 °F 34.0 °F 71% 29.99 in 10.0 mi WNW 12.7 mph 19.6 mph N/A   Clear
10:54 PM 43.0 °F 37.2 °F 33.1 °F 68% 30.01 in 10.0 mi WNW 10.4 mph - N/A   Scattered Clouds
11:54 PM 43.0 °F 37.7 °F 33.1 °F 68% 30.03 in 10.0 mi NW 9.2 mph - N/A   Overcast